Hutchinson, MN

3:50 PM CST on December 15, 2017 (GMT -0600)
Hutchinson Municipal-Butler

Weather History for KHCD - December, 2013

Change the Weather History Date:

Tuesday, December 10, 2013

  Actual Average Record
Temperature  
Mean Temperature 8 °F -  
Max Temperature 16 °F 27 °F 51 °F (1990)
Min Temperature -1 °F 9 °F -18 °F (1977)
Degree Days  
Heating Degree Days 58    
Moisture  
Dew Point 2 °F    
Average Humidity 79    
Maximum Humidity 88    
Minimum Humidity 71    
Precipitation  
Precipitation 0.00 in - - ()
Sea Level Pressure  
Sea Level Pressure 30.00 in    
Wind  
Wind Speed - (North)    
Max Wind Speed -    
Max Gust Speed -    
Visibility 8 miles    
Events Snow    
Averages and records for this station are not official NWS values.
T = Trace of Precipitation, MM = Missing Value Source: NWS Daily Summary

Daily Weather History Graph

Daily Weather History Graph

Search for Another Location

Airport or City:

Trip Planner

Search our weather history database for the weather conditions in past years. The results will help you decide how hot, cold, wet, or windy it might be!

Date:

Astronomy

Dec. 10, 2013 Rise Set
Actual Time 7:44 AM CST 4:36 PM CST
Civil Twilight 7:11 AM CST 5:09 PM CST
Nautical Twilight 6:34 AM CST 5:46 PM CST
Astronomical Twilight 5:58 AM CST 6:22 PM CST
Moon 12:51 PM CST (12/10) 12:48 AM CST (12/10)
Length of Visible Light 9h 58m
Length of Day
8h 51m
Waxing Gibbous, 62% of the Moon is Illuminated
Dec 10
Waxing Gibbous
Dec 17
Full
Dec 25
Last Quarter
Jan 1
New
Jan 7
First Quarter

Hourly Weather History & Observations

Time (CST) Temp. Dew Point Humidity Pressure Visibility Wind Dir Wind Speed Gust Speed Precip Events Conditions
12:14 AM 5.4 °F 1.4 °F 84% 29.77 in 3.0 mi North - - N/A Snow Light Snow
12:33 AM 5.9 °F 2.3 °F 85% 29.75 in 4.0 mi North - - N/A Snow Light Snow
12:53 AM 6.8 °F 3.2 °F 85% 29.74 in 3.0 mi North - - N/A Snow Light Snow
1:13 AM 7.7 °F 4.3 °F 86% 29.74 in 7.0 mi North - - N/A Snow Light Snow
1:33 AM 9.3 °F 5.9 °F 86% 29.73 in 3.0 mi North - - N/A Snow Light Snow
1:53 AM 11.3 °F 7.9 °F 86% 29.72 in 2.0 mi North - - N/A Snow Light Snow
2:13 AM 13.1 °F 10.0 °F 88% 29.73 in 4.0 mi North - - N/A Snow Light Snow
2:33 AM 15.6 °F 12.4 °F 87% 29.73 in 3.0 mi North - - N/A Snow Light Snow
2:54 AM 16.2 °F 12.9 °F 87% 29.74 in 3.0 mi North - - N/A Snow Light Snow
3:13 AM 15.6 °F 12.0 °F 86% 29.75 in 2.0 mi North - - N/A Snow Light Snow
3:33 AM 12.4 °F 9.3 °F 88% 29.77 in 1.5 mi North - - N/A Snow Light Snow
3:53 AM 10.6 °F 7.2 °F 86% 29.79 in 1.5 mi North - - N/A Snow Light Snow
4:13 AM 8.6 °F 5.4 °F 87% 29.81 in 2.0 mi North - - N/A Snow Light Snow
4:33 AM 7.7 °F 4.1 °F 85% 29.82 in 3.0 mi North - - N/A   Mist
4:53 AM 6.8 °F 3.0 °F 84% 29.84 in 2.0 mi North - - N/A   Mist
5:13 AM 5.7 °F 1.9 °F 84% 29.86 in 5.0 mi North - - N/A   Scattered Clouds
5:33 AM 4.8 °F 0.5 °F 82% 29.88 in 3.0 mi North - - N/A   Haze
5:54 AM 3.7 °F -0.4 °F 83% 29.89 in 5.0 mi North - - N/A   Haze
6:13 AM 2.8 °F -1.5 °F 82% 29.91 in 5.0 mi North - - N/A   Haze
6:33 AM 1.9 °F -2.4 °F 82% 29.92 in 7.0 mi North - - N/A   Clear
6:53 AM 1.4 °F -3.5 °F 80% 29.94 in 10.0 mi North - - N/A   Clear
7:13 AM 0.5 °F -4.0 °F 81% 29.96 in 7.0 mi North - - N/A   Clear
7:34 AM -0.8 °F -5.3 °F 81% 29.96 in 10.0 mi North - - N/A   Clear
7:53 AM -1.5 °F -6.0 °F 81% 29.97 in 10.0 mi North - - N/A   Clear
8:13 AM -1.7 °F -6.2 °F 81% 29.98 in 10.0 mi North - - N/A   Clear
8:33 AM -1.5 °F -6.5 °F 79% 29.98 in 10.0 mi North - - N/A   Clear
8:53 AM -1.3 °F -6.7 °F 78% 29.98 in 10.0 mi North - - N/A   Clear
9:13 AM -0.8 °F -6.5 °F 77% 29.99 in 10.0 mi North - - N/A   Clear
9:33 AM -0.8 °F -6.2 °F 78% 30.00 in 10.0 mi North - - N/A   Clear
9:53 AM 0.3 °F -5.4 °F 77% 30.02 in 10.0 mi North - - N/A   Clear
10:13 AM 1.0 °F -5.1 °F 75% 30.03 in 10.0 mi North - - N/A   Clear
10:33 AM 1.8 °F -4.5 °F 75% 30.05 in 10.0 mi North - - N/A   Clear
10:53 AM 2.8 °F -4.0 °F 73% 30.04 in 10.0 mi North - - N/A   Clear
11:13 AM 3.6 °F -3.6 °F 72% 30.04 in 10.0 mi North - - N/A   Clear
11:34 AM 3.9 °F -3.1 °F 73% 30.06 in 10.0 mi North - - N/A   Clear
11:53 AM 4.6 °F -2.2 °F 73% 30.06 in 7.0 mi North - - N/A   Clear
12:14 PM 5.7 °F -1.5 °F 72% 30.05 in 10.0 mi North - - N/A   Clear
12:33 PM 6.3 °F -1.1 °F 72% 30.05 in 10.0 mi North - - N/A   Clear
12:53 PM 6.8 °F -0.6 °F 72% 30.06 in 10.0 mi North - - N/A   Clear
1:13 PM 7.7 °F -0.0 °F 71% 30.06 in 10.0 mi North - - N/A   Scattered Clouds
1:33 PM 7.7 °F 0.1 °F 71% 30.06 in 10.0 mi North - - N/A   Clear
1:53 PM 8.6 °F 1.2 °F 72% 30.06 in 10.0 mi North - - N/A   Clear
2:13 PM 8.6 °F 1.4 °F 73% 30.05 in 10.0 mi North - - N/A   Scattered Clouds
2:33 PM 8.6 °F 1.4 °F 73% 30.04 in 10.0 mi North - - N/A   Scattered Clouds
2:53 PM 8.6 °F 1.4 °F 73% 30.04 in 10.0 mi North - - N/A   Clear
3:13 PM 8.2 °F 1.4 °F 74% 30.03 in 10.0 mi North - - N/A   Clear
3:34 PM 8.4 °F 1.8 °F 74% 30.04 in 10.0 mi North - - N/A   Clear
3:53 PM 8.6 °F 2.1 °F 75% 30.05 in 10.0 mi North - - N/A   Clear
4:13 PM 8.6 °F 2.1 °F 75% 30.05 in 10.0 mi North - - N/A   Clear
4:34 PM 8.4 °F 2.5 °F 77% 30.05 in 10.0 mi North - - N/A   Clear
4:54 PM 8.6 °F 2.5 °F 76% 30.07 in 10.0 mi North - - N/A   Scattered Clouds
5:13 PM 9.1 °F 3.2 °F 77% 30.07 in 10.0 mi North - - N/A   Overcast
5:33 PM 9.5 °F 3.7 °F 77% 30.07 in 10.0 mi North - - N/A   Overcast
5:53 PM 9.9 °F 4.1 °F 78% 30.07 in 10.0 mi North - - N/A   Overcast
6:13 PM 9.9 °F 4.6 °F 79% 30.08 in 10.0 mi North - - N/A   Mostly Cloudy
6:34 PM 9.9 °F 4.8 °F 80% 30.09 in 10.0 mi North - - N/A   Mostly Cloudy
6:53 PM 10.2 °F 5.0 °F 79% 30.10 in 10.0 mi North - - N/A   Overcast
7:13 PM 11.1 °F 5.9 °F 80% 30.11 in 10.0 mi North - - N/A   Overcast
7:33 PM 11.7 °F 6.4 °F 80% 30.11 in 10.0 mi North - - N/A   Overcast
7:53 PM 12.2 °F 6.8 °F 79% 30.12 in 10.0 mi North - - N/A   Overcast
8:13 PM 13.1 °F 7.5 °F 78% 30.13 in 10.0 mi North - - N/A   Overcast
8:33 PM 13.6 °F 8.4 °F 80% 30.14 in 10.0 mi North - - N/A   Overcast
8:53 PM 14.0 °F 9.1 °F 81% 30.15 in 10.0 mi North - - N/A   Overcast
9:13 PM 13.8 °F 9.3 °F 82% 30.16 in 10.0 mi North - - N/A   Overcast
9:33 PM 14.0 °F 7.7 °F 76% 30.18 in 10.0 mi North - - N/A   Overcast
9:53 PM 11.7 °F 5.9 °F 78% 30.20 in 10.0 mi North - - N/A   Overcast
10:14 PM 9.1 °F 3.0 °F 76% 30.22 in 10.0 mi North - - N/A   Mostly Cloudy
10:33 PM 7.3 °F 0.5 °F 74% 30.24 in 10.0 mi North - - N/A   Scattered Clouds
10:53 PM 5.9 °F -0.6 °F 75% 30.25 in 10.0 mi North - - N/A   Clear
11:14 PM 4.6 °F -2.6 °F 72% 30.27 in 10.0 mi North - - N/A   Clear
11:33 PM 3.2 °F -3.6 °F 73% 30.28 in 10.0 mi North - - N/A   Clear
11:53 PM 1.9 °F -4.5 °F 74% 30.29 in 10.0 mi North - - N/A   Clear